Weather History for Tomahawk, WI

Change the Weather History Date:

Wednesday, March 20, 2013

  Actual Average (KRHI) Record (KRHI)
Temperature  
Mean Temperature 9 °F 29 °F  
Max Temperature 17 °F 39 °F 76 °F (2012)
Min Temperature 1 °F 19 °F -20 °F (1965)
Degree Days  
Heating Degree Days 56 36  
Month to date heating degree days 806  
Since 1 July heating degree days 7428  
Cooling Degree Days 0 0  
Month to date cooling degree days 0  
Year to date cooling degree days 0  
Moisture  
Dew Point 0 °F    
Average Humidity 60    
Maximum Humidity 73    
Minimum Humidity 49    
Precipitation  
Precipitation 0.00 in 0.05 in 1.87 in (1921)
Month to date precipitation 0.93  
Year to date precipitation 2.97  
Snow  
Snow 0.00 in - 2.00 in (1970)
Month to date snowfall  
Since 1 July snowfall  
Snow Depth -    
Sea Level Pressure  
Sea Level Pressure 29.94 in    
Wind  
Wind Speed 11 mph (WNW)    
Max Wind Speed 17 mph    
Max Gust Speed 25 mph    
Visibility 10 miles    
Events      
T = Trace of Precipitation, MM = Missing Value Source: NWS Daily Summary

Daily Weather History Graph

Daily Weather History Graph

Search for Another Location

Airport:

Trip Planner

Search our weather history database for the weather conditions in past years. The results will help you decide how hot, cold, wet, or windy it might be!

Date:

Astronomy

Mar. 20, 2013 Rise Set
Actual Time 7:01 AM CDT 7:12 PM CDT
Civil Twilight 6:32 AM CDT 7:41 PM CDT
Nautical Twilight 5:57 AM CDT 8:16 PM CDT
Astronomical Twilight 5:22 AM CDT 8:52 PM CDT
Moon 12:31 PM CDT (3/20) 2:57 AM CDT (3/20)
Length of Visible Light 13h 09m
Length of Day
12h 10m
First Quarter, 59% of the Moon is Illuminated
Mar 20
First Quarter
Mar 27
Full
Apr 2
Last Quarter
Apr 10
New
Apr 18
First Quarter

Hourly Weather History & Observations

Time (CDT) Temp. Windchill Dew Point Humidity Pressure Visibility Wind Dir Wind Speed Gust Speed Precip Events Conditions
12:15 AM 14.0 °F -2.5 °F 1.4 °F 57% 29.90 in 10.0 mi WNW 17.3 mph 23.0 mph N/A   Clear
12:35 AM 14.0 °F -0.8 °F 1.4 °F 57% 29.90 in 10.0 mi WNW 13.8 mph 18.4 mph N/A   Clear
12:55 AM 12.2 °F -0.2 °F -0.4 °F 57% 29.91 in 10.0 mi WNW 9.2 mph 17.3 mph N/A   Clear
1:15 AM 12.2 °F -0.2 °F -0.4 °F 57% 29.90 in 10.0 mi West 9.2 mph - N/A   Clear
1:35 AM 10.4 °F -4.1 °F -0.4 °F 62% 29.91 in 10.0 mi West 11.5 mph - N/A   Clear
1:55 AM 10.4 °F -3.3 °F -0.4 °F 62% 29.92 in 10.0 mi West 10.4 mph 18.4 mph N/A   Clear
2:15 AM 10.4 °F -3.3 °F -0.4 °F 62% 29.92 in 10.0 mi WNW 10.4 mph 19.6 mph N/A   Clear
2:35 AM 8.6 °F -4.7 °F -0.4 °F 67% 29.92 in 10.0 mi West 9.2 mph - N/A   Clear
2:55 AM 8.6 °F -7.7 °F -0.4 °F 67% 29.92 in 10.0 mi WNW 13.8 mph 21.9 mph N/A   Clear
3:15 AM 8.6 °F -5.5 °F -2.2 °F 62% 29.92 in 10.0 mi West 10.4 mph 16.1 mph N/A   Clear
3:35 AM 8.6 °F -5.5 °F -2.2 °F 62% 29.91 in 10.0 mi West 10.4 mph 18.4 mph N/A   Clear
3:55 AM 6.8 °F -10.0 °F -2.2 °F 67% 29.92 in 10.0 mi WNW 13.8 mph 17.3 mph N/A   Clear
4:15 AM 5.0 °F -11.6 °F -4.0 °F 66% 29.92 in 10.0 mi West 12.7 mph - N/A   Clear
4:35 AM 5.0 °F -10.0 °F -4.0 °F 66% 29.92 in 10.0 mi West 10.4 mph - N/A   Clear
4:55 AM 5.0 °F -8.1 °F -4.0 °F 66% 29.92 in 10.0 mi West 8.1 mph - N/A   Clear
5:15 AM 5.0 °F -10.0 °F -4.0 °F 66% 29.92 in 10.0 mi West 10.4 mph 17.3 mph N/A   Clear
5:35 AM 5.0 °F -10.8 °F -4.0 °F 66% 29.92 in 10.0 mi West 11.5 mph - N/A   Clear
5:55 AM 3.2 °F -12.2 °F -4.0 °F 72% 29.92 in 10.0 mi West 10.4 mph - N/A   Clear
6:15 AM 3.2 °F -11.3 °F -4.0 °F 72% 29.92 in 10.0 mi West 9.2 mph - N/A   Clear
6:35 AM 3.2 °F -12.2 °F -4.0 °F 72% 29.92 in 10.0 mi West 10.4 mph 17.3 mph N/A   Clear
6:55 AM 3.2 °F -12.2 °F -4.0 °F 72% 29.93 in 10.0 mi West 10.4 mph 16.1 mph N/A   Clear
7:15 AM 1.4 °F -14.5 °F -5.8 °F 72% 29.93 in 10.0 mi West 10.4 mph - N/A   Clear
7:35 AM 3.2 °F -11.3 °F -5.8 °F 66% 29.93 in 10.0 mi West 9.2 mph 16.1 mph N/A   Clear
7:55 AM 3.2 °F -12.2 °F -4.0 °F 72% 29.93 in 10.0 mi West 10.4 mph 17.3 mph N/A   Clear
8:15 AM 3.2 °F -13.9 °F -4.0 °F 72% 29.93 in 10.0 mi West 12.7 mph 18.4 mph N/A   Clear
8:35 AM 5.0 °F -10.0 °F -4.0 °F 66% 29.93 in 10.0 mi WNW 10.4 mph 19.6 mph N/A   Clear
8:55 AM 5.0 °F -13.6 °F -2.2 °F 72% 29.93 in 10.0 mi WNW 16.1 mph - N/A   Clear
9:15 AM 6.8 °F -8.6 °F -2.2 °F 67% 29.93 in 10.0 mi WNW 11.5 mph 19.6 mph N/A   Clear
9:35 AM 8.6 °F -7.0 °F -0.4 °F 67% 29.94 in 10.0 mi WNW 12.7 mph 20.7 mph N/A   Scattered Clouds
9:55 AM 8.6 °F -7.0 °F -0.4 °F 67% 29.93 in 10.0 mi WNW 12.7 mph 21.9 mph N/A   Scattered Clouds
10:15 AM 10.4 °F -4.8 °F -0.4 °F 62% 29.92 in 10.0 mi West 12.7 mph 25.3 mph N/A   Clear
10:55 AM 12.2 °F -3.7 °F -0.4 °F 57% 29.92 in 10.0 mi WNW 15.0 mph - N/A   Clear
11:15 AM 12.2 °F -2.5 °F -0.4 °F 57% 29.92 in 10.0 mi WNW 12.7 mph 20.7 mph N/A   Scattered Clouds
11:35 AM 14.0 °F -0.2 °F 1.4 °F 57% 29.92 in 10.0 mi West 12.7 mph 20.7 mph N/A   Scattered Clouds
11:55 AM 14.0 °F -0.8 °F -0.4 °F 53% 29.93 in 10.0 mi NNW 13.8 mph 19.6 mph N/A   Scattered Clouds
12:15 PM 15.8 °F 1.4 °F -0.4 °F 49% 29.93 in 10.0 mi WNW 13.8 mph 19.6 mph N/A   Scattered Clouds
12:35 PM 15.8 °F 3.4 °F -0.4 °F 49% 29.93 in 10.0 mi WNW 10.4 mph 16.1 mph N/A   Mostly Cloudy
12:55 PM 17.6 °F 3.2 °F 1.4 °F 49% 29.93 in 10.0 mi WNW 15.0 mph 20.7 mph N/A   Mostly Cloudy
1:15 PM 17.6 °F 3.7 °F 1.4 °F 49% 29.93 in 10.0 mi WNW 13.8 mph 17.3 mph N/A   Overcast
1:35 PM 17.6 °F 5.7 °F 1.4 °F 49% 29.93 in 10.0 mi WNW 10.4 mph 17.3 mph N/A   Overcast
1:55 PM 17.6 °F 8.2 °F 1.4 °F 49% 29.93 in 10.0 mi WNW 6.9 mph 18.4 mph N/A   Overcast
2:15 PM 17.6 °F 7.3 °F 1.4 °F 49% 29.92 in 10.0 mi NW 8.1 mph 18.4 mph N/A   Overcast
2:35 PM 17.6 °F 5.0 °F 1.4 °F 49% 29.93 in 10.0 mi NW 11.5 mph - N/A   Overcast
2:55 PM 17.6 °F 5.7 °F 1.4 °F 49% 29.93 in 10.0 mi NW 10.4 mph 17.3 mph N/A   Overcast
3:15 PM 17.6 °F 4.3 °F 1.4 °F 49% 29.93 in 10.0 mi WNW 12.7 mph - N/A   Overcast
3:35 PM 17.6 °F 3.2 °F 1.4 °F 49% 29.93 in 10.0 mi NW 15.0 mph 21.9 mph N/A   Overcast
3:55 PM 17.6 °F 3.7 °F 1.4 °F 49% 29.94 in 10.0 mi WNW 13.8 mph 19.6 mph N/A   Overcast
4:15 PM 17.6 °F 4.3 °F 1.4 °F 49% 29.94 in 10.0 mi NW 12.7 mph - N/A   Overcast
4:35 PM 17.6 °F 4.3 °F 1.4 °F 49% 29.95 in 10.0 mi NW 12.7 mph 16.1 mph N/A   Overcast
4:55 PM 17.6 °F 5.7 °F 1.4 °F 49% 29.95 in 10.0 mi WNW 10.4 mph - N/A   Overcast
5:15 PM 17.6 °F 4.3 °F 1.4 °F 49% 29.95 in 10.0 mi WNW 12.7 mph - N/A   Overcast
5:35 PM 17.6 °F 4.3 °F 1.4 °F 49% 29.96 in 10.0 mi WNW 12.7 mph 17.3 mph N/A   Overcast
5:55 PM 17.6 °F 4.3 °F 1.4 °F 49% 29.96 in 10.0 mi WNW 12.7 mph 17.3 mph N/A   Overcast
6:15 PM 15.8 °F 2.7 °F 1.4 °F 53% 29.97 in 10.0 mi NW 11.5 mph 16.1 mph N/A   Overcast
6:35 PM 15.8 °F 3.4 °F 1.4 °F 53% 29.97 in 10.0 mi NW 10.4 mph 16.1 mph N/A   Overcast
6:55 PM 14.0 °F 2.0 °F 1.4 °F 57% 29.97 in 10.0 mi NW 9.2 mph - N/A   Mostly Cloudy
7:15 PM 14.0 °F 2.9 °F 1.4 °F 57% 29.97 in 10.0 mi WNW 8.1 mph 17.3 mph N/A   Mostly Cloudy
7:35 PM 14.0 °F 2.0 °F 1.4 °F 57% 29.98 in 10.0 mi WNW 9.2 mph - N/A   Overcast
7:55 PM 14.0 °F 2.9 °F 1.4 °F 57% 29.98 in 10.0 mi WNW 8.1 mph - N/A   Overcast
8:15 PM 14.0 °F 5.1 °F 1.4 °F 57% 29.99 in 10.0 mi WNW 5.8 mph - N/A   Overcast
8:35 PM 14.0 °F 5.1 °F 3.2 °F 62% 29.99 in 10.0 mi WNW 5.8 mph - N/A   Overcast
8:55 PM 14.0 °F 3.9 °F 3.2 °F 62% 29.99 in 10.0 mi NNW 6.9 mph - N/A   Overcast
9:15 PM 14.0 °F 3.9 °F 3.2 °F 62% 29.98 in 10.0 mi NW 6.9 mph - N/A   Mostly Cloudy
9:35 PM 14.0 °F 3.9 °F 3.2 °F 62% 29.98 in 10.0 mi NW 6.9 mph - N/A   Scattered Clouds
9:55 PM 14.0 °F 5.1 °F 3.2 °F 62% 29.98 in 10.0 mi NNW 5.8 mph - N/A   Mostly Cloudy
10:15 PM 14.0 °F 5.1 °F 3.2 °F 62% 29.98 in 10.0 mi NW 5.8 mph - N/A   Overcast
10:35 PM 12.2 °F 2.9 °F 3.2 °F 67% 29.98 in 10.0 mi WNW 5.8 mph - N/A   Mostly Cloudy
10:55 PM 12.2 °F 4.3 °F 3.2 °F 67% 29.98 in 10.0 mi WNW 4.6 mph - N/A   Mostly Cloudy
11:15 PM 12.2 °F 2.9 °F 3.2 °F 67% 29.98 in 10.0 mi WNW 5.8 mph - N/A   Scattered Clouds
11:35 PM 12.2 °F 1.7 °F 3.2 °F 67% 29.97 in 10.0 mi WNW 6.9 mph - N/A   Clear
11:55 PM 10.4 °F - 3.2 °F 73% 29.98 in 10.0 mi Calm Calm - N/A   Clear